Home   Weather   Breckenridge   Past weeks

Flag for USA Past Weather in Breckenridge, Colorado, USA — Yesterday and Last 2 Weeks

Now
61 °F

Sunny.


Feels Like: 61 °F
Forecast: 45 / 72 °F
Wind: 6 mph from Southeast

Location: Copper Mountain - Red Cliff Pass

Current Time: Sep 28, 2016 at 11:11:08 AM

Latest Report: Sep 28, 2016 at 10:35 AM


Visibility: 10 mi

Pressure: 30.72 "Hg (21.75 "Hg at 2921m altitude)

Humidity: 22%

Dew Point: 21 °F

Location of BreckenridgeLocation

Past Weather in Breckenridge — Graph

°F

Breckenridge Temperature Yesterday

Maximum temperature yesterday: 64 °F (at 3:16 PM)
Minimum temperature yesterday: 45 °F (at 12:16 AM)
Average temperature yesterday: 51 °F

High & Low Weather Summary for the Past Weeks

 TemperatureHumidityPressure
High68 °F (Sep 19, 4:34 PM)93% (Sep 25, 9:55 AM)30.75 "Hg (Sep 25, 9:55 AM)
Low25 °F (Sep 24, 2:35 AM)10% (Sep 17, 5:35 PM)30.12 "Hg (Sep 23, 9:36 AM)
Average46 °F46%30.52 "Hg
* Reported Sep 13 9:15 AM — Sep 28 9:55 AM, Breckenridge, Weather by CustomWeather, © 2016

Note: Actual official high and low records may vary slightly from our data, if they occured in-between our weather recording intervals... More about our weather records

Advertising

Breckenridge Weather History for the Previous 24 Hours

Scroll right to see more
 ConditionsComfort  
Time TempWeatherWind HumidityBarometerVisibility
9:55 AM
Wed, Sep 28
59 °FSunny.10 mph25%30.71 "Hg10 mi
9:36 AM55 °FSunny.7 mph28%30.71 "Hg10 mi
9:16 AM54 °FSunny.10 mph28%30.70 "Hg10 mi
8:55 AM54 °FSunny.8 mph30%30.69 "Hg10 mi
8:36 AM54 °FSunny.8 mph33%30.69 "Hg10 mi
8:16 AM54 °FSunny.10 mph33%30.69 "Hg10 mi
7:55 AM52 °FSunny.9 mph32%30.68 "Hg10 mi
7:36 AM48 °FSunny.10 mph37%30.68 "Hg10 mi
7:16 AM46 °FSunny.13 mph40%30.67 "Hg10 mi
6:55 AM46 °FClear.13 mph40%30.66 "Hg10 mi
6:36 AM46 °FClear.10 mph40%30.66 "Hg10 mi
6:16 AM46 °FClear.7 mph40%30.66 "Hg10 mi
5:56 AM46 °FClear.7 mph40%30.65 "Hg10 mi
5:35 AM46 °FClear.5 mph40%30.65 "Hg10 mi
5:15 AM46 °FClear.9 mph40%30.65 "Hg10 mi
4:56 AM46 °FClear.10 mph40%30.64 "Hg10 mi
4:36 AM46 °FClear.13 mph40%30.64 "Hg10 mi
4:16 AM46 °FClear.14 mph40%30.64 "Hg10 mi
3:55 AM46 °FClear.10 mph40%30.64 "Hg10 mi
3:36 AM46 °FClear.10 mph40%30.64 "Hg10 mi
3:16 AM46 °FClear.7 mph37%30.64 "Hg10 mi
2:56 AM46 °FClear.No wind37%30.64 "Hg10 mi
2:36 AM46 °FClear.3 mph37%30.64 "Hg10 mi
2:16 AM46 °FClear.8 mph37%30.64 "Hg10 mi
1:55 AM46 °FClear.6 mph37%30.64 "Hg10 mi
1:36 AM48 °FClear.7 mph34%30.64 "Hg10 mi
1:16 AM46 °FClear.3 mph37%30.64 "Hg10 mi
12:56 AM46 °FClear.7 mph32%30.64 "Hg10 mi
12:36 AM48 °FClear.5 mph29%30.64 "Hg10 mi
11:55 PM
Tue, Sep 27
48 °FClear.3 mph29%30.64 "Hg10 mi
11:36 PM46 °FClear.3 mph34%30.64 "Hg10 mi
11:16 PM50 °FClear.6 mph30%30.64 "Hg10 mi
10:56 PM48 °FClear.No wind29%30.64 "Hg10 mi
10:36 PM46 °FClear.No wind29%30.64 "Hg10 mi
10:15 PM48 °FClear.3 mph27%30.64 "Hg10 mi
9:56 PM50 °FClear.No wind25%30.63 "Hg10 mi
9:36 PM50 °FClear.5 mph25%30.64 "Hg10 mi
9:16 PM52 °FClear.3 mph22%30.63 "Hg10 mi
8:56 PM52 °FClear.No wind22%30.63 "Hg10 mi
8:36 PM54 °FClear.No wind21%30.62 "Hg10 mi
8:16 PM54 °FClear.No wind21%30.62 "Hg10 mi
7:56 PM54 °FClear.8 mph21%30.61 "Hg10 mi
7:36 PM54 °FClear.8 mph21%30.61 "Hg10 mi
7:16 PM54 °FClear.9 mph21%30.60 "Hg10 mi
6:56 PM54 °FClear.14 mph21%30.59 "Hg10 mi
6:15 PM59 °FSunny.10 mph18%30.59 "Hg10 mi
5:55 PM59 °FSunny.8 mph20%30.59 "Hg10 mi
5:36 PM59 °FSunny.10 mph18%30.59 "Hg10 mi
5:15 PM59 °FSunny.12 mph18%30.59 "Hg10 mi
4:55 PM63 °FSunny.3 mph17%30.59 "Hg10 mi
4:35 PM63 °FSunny.6 mph17%30.59 "Hg10 mi
4:16 PM63 °FSunny.8 mph17%30.59 "Hg10 mi
3:56 PM61 °FSunny.5 mph20%30.59 "Hg10 mi
3:36 PM63 °FSunny.7 mph17%30.59 "Hg10 mi
3:16 PM64 °FSunny.3 mph18%30.60 "Hg10 mi
2:55 PM61 °FSunny.No wind19%30.60 "Hg10 mi
2:35 PM61 °FSunny.No wind20%30.60 "Hg10 mi
2:15 PM61 °FSunny.No wind20%30.60 "Hg10 mi
1:55 PM59 °FSunny.6 mph20%30.62 "Hg10 mi
1:36 PM59 °FSunny.No wind23%30.62 "Hg10 mi
1:15 PM59 °FSunny.8 mph21%30.62 "Hg10 mi
12:56 PM57 °FSunny.No wind25%30.62 "Hg10 mi
12:36 PM55 °FSunny.No wind28%30.62 "Hg10 mi
12:16 PM59 °FSunny.10 mph29%30.63 "Hg10 mi
11:55 AM55 °FSunny.7 mph28%30.64 "Hg10 mi
11:35 AM54 °FSunny.5 mph28%30.64 "Hg10 mi
11:16 AM54 °FSunny.3 mph30%30.64 "Hg10 mi
Weather by CustomWeather, © 2016

See weather overviewHow to use our weather pages